RH
6581 6623 6710 6804 6880 6892 6845 6730 6520 6312 6130 5959 5826 5695 5569 5452 5376 5304 5225 5119 4943 4785 4610 4454 4353 4291 4248 4187 4134 4044 3961 3841 3731 3613 3474 3337 3224 3139 3107 3106 3197 3269 3313 3318 3264 3199 3163 3126 3097 3038 2952 2838 2730 2642 2595 2556 2589 2600 2605 2600 2601 2639 2771 2979 3287 3495 3561 3446 3143
6699 6776 6875 6952 6920 6841 6698 6518 6288 6101 5901 5743 5629 5525 5424 5357 5326 5259 5202 5080 4957 4796 4681 4580 4504 4415 4329 4187 4034 3889 3749 3588 3450 3323 3185 3065 2990 2912 2873 2865 2880 2941 3017 3079 3108 3087 3023 2986 2930 2868 2799 2724 2603 2515 2460 2416 2419 2452 2499 2538 2505 2541 2607 2749 3035 3397 3721 3913 3760
6813 6894 6946 6902 6762 6594 6434 6245 6072 5910 5775 5635 5545 5466 5426 5402 5388 5343 5262 5140 4980 4883 4768 4663 4479 4309 4115 3903 3704 3533 3412 3276 3166 3079 2976 2904 2866 2842 2832 2791 2744 2663 2632 2633 2701 2774 2802 2796 2765 2717 2662 2612 2557 2474 2403 2348 2343 2354 2398 2431 2454 2490 2517 2594 2764 3099 3505 3972 4162
6896 6920 6845 6708 6517 6348 6177 6028 5900 5801 5688 5603 5557 5553 5560 5565 5534 5438 5332 5162 5025 4857 4690 4464 4209 3952 3715 3527 3370 3243 3142 3055 3002 2941 2889 2860 2825 2804 2789 2747 2671 2580 2483 2375 2322 2307 2353 2426 2491 2499 2521 2493 2488 2477 2449 2400 2378 2350 2355 2378 2422 2452 2474 2529 2662 2859 3195 3628 4098
6919 6818 6659 6479 6299 6116 5985 5909 5843 5800 5737 5688 5698 5718 5736 5724 5612 5497 5310 5116 4889 4630 4338 4057 3804 3580 3404 3258 3171 3101 3026 2976 2924 2872 2848 2816 2802 2765 2712 2642 2579 2490 2387 2291 2172 2062 1987 1970 2047 2140 2238 2321 2381 2420 2441 2464 2458 2463 2449 2444 2443 2465 2498 2509 2580 2729 2949 3254 3710
6779 6611 6407 6233 6087 6009 5955 5926 5893 5875 5865 5874 5899 5919 5909 5815 5641 5429 5176 4901 4580 4252 3943 3697 3496 3353 3233 3152 3096 3024 2973 2929 2875 2846 2781 2750 2713 2655 2574 2508 2395 2323 2227 2133 2034 1924 1848 1788 1780 1830 1907 2033 2190 2316 2415 2513 2574 2615 2616 2591 2574 2559 2553 2550 2566 2649 2786 3003 3355
6572 6413 6262 6151 6078 6059 6051 6057 6046 6033 6061 6080 6105 6074 5960 5766 5505 5216 4893 4555 4232 3937 3689 3477 3365 3251 3170 3112 3035 2962 2905 2834 2789 2735 2687 2623 2571 2485 2402 2330 2234 2146 2031 1952 1870 1780 1740 1716 1743 1779 1832 1896 2023 2154 2313 2495 2654 2774 2841 2835 2803 2760 2721 2662 2614 2613 2690 2830 3069
6399 6319 6263 6225 6215 6209 6215 6226 6237 6259 6248 6233 6165 6049 5829 5551 5222 4885 4552 4245 3958 3721 3520 3398 3289 3206 3107 3038 2948 2875 2810 2760 2695 2648 2573 2517 2448 2360 2255 2190 2070 1979 1898 1824 1779 1733 1693 1695 1721 1777 1859 1960 2040 2140 2263 2439 2676 2879 3001 3063 3050 3012 2944 2862 2759 2685 2673 2688 2844
6400 6393 6380 6370 6375 6358 6385 6424 6434 6420 6363 6264 6090 5871 5597 5260 4905 4565 4254 3985 3748 3576 3405 3302 3220 3127 3037 2941 2851 2798 2722 2669 2627 2574 2513 2442 2371 2273 2160 2076 1978 1905 1815 1783 1757 1738 1726 1719 1734 1743 1811 1904 2018 2149 2283 2454 2719 2944 3120 3201 3210 3181 3118 3022 2923 2819 2712 2643 2660
6512 6513 6523 6523 6530 6552 6576 6598 6549 6468 6313 6135 5891 5586 5265 4916 4592 4281 4023 3784 3601 3448 3328 3229 3127 3037 2942 2874 2788 2746 2687 2657 2618 2546 2487 2407 2304 2209 2113 2035 1951 1889 1821 1802 1793 1802 1795 1809 1777 1769 1762 1810 1905 2045 2195 2445 2732 2960 3145 3261 3321 3312 3225 3091 2987 2888 2797 2665 2576
6644 6645 6650 6660 6687 6723 6696 6665 6522 6348 6118 5892 5612 5285 4958 4640 4346 4068 3843 3640 3495 3370 3268 3165 3066 2982 2904 2834 2787 2737 2706 2662 2605 2534 2450 2338 2260 2148 2070 1997 1935 1895 1873 1838 1841 1876 1928 1989 1945 1857 1784 1773 1827 1905 2055 2279 2555 2815 3028 3211 3335 3410 3405 3272 3113 3013 2892 2779 2617
6736 6735 6749 6770 6816 6790 6727 6582 6363 6125 5866 5585 5313 5001 4721 4444 4191 3957 3768 3585 3446 3348 3235 3140 3045 2953 2889 2820 2780 2759 2726 2669 2585 2490 2376 2259 2166 2071 2007 1950 1915 1896 1875 1870 1879 1959 2070 2204 2201 2113 2009 1927 1919 1931 1957 2054 2247 2532 2791 3009 3227 3355 3441 3426 3293 3196 3110 3043 2887
6802 6820 6841 6865 6824 6740 6584 6388 6116 5852 5588 5332 5099 4842 4587 4365 4098 3898 3737 3584 3444 3329 3220 3126 3028 2936 2872 2820 2801 2768 2706 2627 2527 2388 2280 2160 2054 1991 1943 1891 1880 1876 1890 1885 1921 2018 2145 2255 2310 2354 2387 2420 2430 2392 2324 2267 2232 2395 2632 2879 3026 3134 3225 3311 3279 3277 3241 3280 3221
6851 6885 6889 6851 6740 6569 6379 6124 5840 5610 5371 5190 4972 4765 4546 4321 4087 3887 3729 3591 3457 3334 3201 3098 2995 2914 2873 2823 2788 2726 2643 2523 2401 2262 2134 2030 1968 1918 1913 1909 1912 1923 1937 1976 2029 2132 2259 2383 2482 2602 2729 2844 2904 2893 2865 2822 2737 2727 2757 2889 2938 2985 3012 3048 3098 3152 3197 3262 3312
6890 6905 6857 6759 6585 6378 6140 5901 5662 5451 5277 5111 4932 4735 4524 4307 4085 3910 3762 3608 3452 3313 3171 3048 2951 2898 2849 2802 2735 2624 2511 2356 2228 2105 2029 1991 1955 1961 1984 2009 2031 2073 2118 2187 2234 2306 2402 2513 2598 2719 2884 3016 3059 3076 3087 3103 3125 3103 3048 3021 3040 3012 2970 2945 2983 3041 3087 3140 3210
6888 6848 6730 6588 6405 6201 5965 5745 5554 5388 5234 5091 4928 4715 4520 4309 4112 3952 3782 3606 3428 3261 3099 2990 2885 2846 2798 2736 2606 2460 2310 2171 2093 2049 2025 2031 2056 2095 2148 2193 2235 2282 2340 2412 2472 2516 2576 2659 2774 2895 3027 3132 3148 3164 3180 3197 3235 3252 3257 3268 3224 3188 3124 3071 3048 3054 3071 3069 3103
6826 6719 6573 6419 6244 6052 5864 5673 5486 5340 5220 5088 4897 4705 4514 4323 4144 3976 3795 3575 3371 3196 3028 2913 2830 2754 2673 2565 2400 2270 2159 2052 2051 2068 2104 2149 2210 2274 2330 2361 2420 2486 2546 2612 2663 2682 2714 2752 2851 2966 3054 3114 3147 3174 3202 3224 3251 3279 3284 3284 3295 3276 3248 3200 3170 3141 3111 3098 3085
6688 6555 6415 6282 6113 5949 5770 5591 5449 5329 5198 5060 4885 4711 4534 4397 4221 4004 3790 3555 3309 3113 2951 2818 2719 2613 2489 2360 2230 2113 2035 2022 2050 2098 2176 2246 2332 2399 2444 2502 2541 2601 2658 2704 2732 2742 2746 2776 2860 2959 3047 3124 3190 3217 3261 3319 3330 3346 3352 3346 3335 3319 3288 3255 3235 3191 3149 3116 3084
6519 6405 6273 6165 6010 5862 5697 5516 5416 5304 5175 5029 4880 4748 4598 4448 4247 4021 3787 3504 3238 3004 2809 2670 2542 2418 2299 2173 2079 2017 1988 2035 2088 2153 2215 2301 2396 2477 2566 2618 2642 2688 2723 2729 2727 2759 2776 2854 2972 3087 3224 3334 3427 3509 3570 3652 3699 3710 3716 3680 3652 3598 3520 3465 3407 3335 3259 3170 3085
6363 6274 6155 6048 5900 5750 5609 5467 5388 5262 5144 5023 4889 4770 4642 4473 4270 3996 3725 3395 3112 2855 2638 2465 2324 2215 2141 2061 1996 1962 1979 2032 2094 2180 2265 2340 2479 2582 2698 2747 2793 2780 2753 2762 2793 2885 2979 3126 3298 3473 3664 3818 3966 4070 4152 4213 4258 4252 4202 4170 4092 4018 3924 3838 3762 3668 3548 3399 3256
6237 6135 6051 5934 5803 5673 5528 5430 5326 5225 5099 4984 4899 4774 4634 4481 4222 3934 3587 3243 2921 2643 2425 2236 2149 2089 2043 1990 1938 1906 1921 1979 2074 2191 2317 2434 2598 2722 2810 2902 2896 2877 2861 2889 3055 3223 3411 3638 3881 4113 4318 4510 4630 4726 4770 4791 4753 4687 4582 4495 4387 4290 4179 4105 4027 3951 3852 3717 3541
6113 6017 5927 5813 5680 5560 5415 5311 5210 5106 5014 4909 4827 4703 4551 4354 4098 3762 3398 3004 2670 2385 2193 2085 2031 1999 1966 1935 1891 1867 1868 1918 2032 2196 2374 2563 2737 2822 2904 2961 2993 3012 3076 3192 3446 3740 4040 4350 4631 4880 5074 5207 5236 5232 5207 5172 5084 4977 4823 4663 4528 4387 4268 4157 4074 4004 3921 3830 3731
5991 5885 5790 5650 5513 5342 5221 5081 4997 4900 4817 4752 4679 4552 4395 4190 3874 3509 3115 2716 2395 2166 2024 1973 1938 1938 1913 1868 1838 1805 1828 1892 2031 2220 2447 2668 2834 2944 3004 3049 3172 3305 3476 3700 4038 4416 4818 5213 5473 5634 5706 5724 5688 5601 5518 5452 5404 5294 5184 5030 4843 4648 4425 4190 4037 3902 3779 3705 3663
5849 5728 5576 5408 5237 5077 4923 4809 4717 4657 4617 4577 4482 4351 4182 3924 3568 3161 2768 2390 2147 1983 1914 1912 1908 1870 1827 1776 1771 1791 1857 1965 2140 2336 2530 2723 2911 3026 3147 3240 3442 3670 3949 4273 4738 5261 5721 6059 6157 6165 6128 6070 5978 5901 5846 5830 5840 5852 5829 5730 5541 5289 4967 4609 4267 3983 3734 3526 3439
5649 5491 5316 5137 4977 4821 4691 4594 4540 4482 4437 4364 4252 4112 3888 3586 3183 2772 2405 2131 1961 1886 1865 1841 1853 1817 1763 1726 1748 1825 1944 2123 2336 2518 2665 2795 2910 3073 3266 3483 3752 4069 4468 4988 5588 6071 6421 6532 6511 6500 6450 6387 6310 6247 6246 6286 6391 6509 6580 6604 6487 6312 6045 5747 5345 4901 4434 3952 3609
5451 5293 5136 4974 4845 4715 4610 4525 4437 4360 4266 4157 4031 3824 3548 3168 2774 2400 2096 1905 1827 1817 1804 1803 1773 1742 1729 1718 1779 1905 2074 2298 2540 2726 2861 2933 3010 3200 3465 3799 4163 4609 5154 5799 6326 6655 6801 6766 6737 6727 6713 6687 6674 6687 6720 6792 6919 7074 7195 7264 7275 7258 7194 7066 6845 6441 5960 5350 4652
5310 5193 5085 4970 4847 4760 4644 4524 4388 4240 4113 3947 3751 3491 3143 2770 2391 2087 1878 1758 1753 1757 1766 1751 1748 1730 1733 1768 1889 2029 2209 2433 2648 2817 2958 3074 3259 3501 3824 4225 4711 5279 5870 6452 6787 6899 6918 6892 6896 6949 6978 7010 7067 7111 7172 7244 7318 7374 7446 7509 7597 7648 7655 7613 7521 7419 7240 6909 6268
5301 5223 5122 5016 4910 4802 4672 4524 4347 4154 3962 3723 3447 3127 2757 2370 2062 1859 1730 1684 1715 1725 1723 1704 1716 1750 1777 1878 2013 2184 2391 2596 2762 2941 3088 3278 3563 3924 4328 4771 5337 5917 6439 6841 6962 6980 6985 6975 7040 7124 7236 7329 7415 7470 7505 7515 7471 7412 7400 7432 7565 7692 7771 7746 7665 7604 7582 7560 7368
5397 5308 5188 5074 4958 4836 4674 4511 4284 4032 3775 3473 3113 2743 2396 2052 1821 1694 1639 1640 1670 1685 1707 1715 1737 1766 1815 1947 2123 2329 2553 2736 2938 3110 3306 3555 3925 4360 4808 5334 5914 6423 6802 7073 7110 7137 7127 7170 7232 7323 7410 7532 7576 7564 7520 7418 7304 7226 7159 7146 7180 7298 7437 7634 7707 7701 7674 7652 7636
5491 5380 5254 5122 4997 4843 4661 4430 4152 3856 3522 3159 2770 2420 2098 1829 1660 1591 1596 1623 1663 1691 1721 1735 1748 1780 1859 2051 2304 2545 2754 2937 3140 3345 3599 3937 4368 4839 5338 5866 6387 6783 7066 7265 7328 7346 7366 7393 7444 7510 7551 7562 7501 7391 7271 7127 7007 6905 6818 6745 6730 6738 6776 6882 7173 7463 7694 7743 7695
5586 5446 5305 5172 5018 4808 4592 4322 3986 3629 3248 2840 2465 2127 1841 1631 1549 1531 1572 1652 1713 1743 1758 1746 1765 1827 1960 2196 2527 2795 3022 3177 3360 3599 3909 4302 4801 5314 5835 6330 6757 7088 7297 7454 7517 7552 7584 7621 7672 7707 7676 7570 7366 7188 7019 6902 6777 6688 6623 6583 6582 6595 6595 6615 6680 6900 7229 7635 7768
5675 5526 5373 5202 5011 4759 4478 4155 3755 3340 2932 2525 2189 1893 1649 1495 1470 1516 1598 1713 1757 1778 1767 1741 1808 1916 2072 2327 2659 2941 3190 3362 3557 3865 4266 4763 5268 5773 6235 6673 7031 7309 7508 7665 7739 7776 7808 7837 7818 7824 7767 7630 7388 7160 6986 6841 6766 6737 6740 6768 6852 6929 6951 6944 6934 6943 7064 7287 7605
5757 5604 5405 5205 4956 4648 4295 3902 3473 3044 2645 2266 1930 1690 1491 1416 1446 1548 1660 1763 1804 1807 1809 1807 1931 2075 2291 2536 2829 3095 3317 3552 3813 4163 4611 5138 5638 6124 6568 6947 7230 7471 7686 7835 7916 7947 7955 7978 7912 7868 7791 7665 7435 7217 7026 6907 6855 6892 6989 7105 7244 7382 7445 7460 7426 7402 7416 7434 7544
5844 5645 5417 5155 4836 4464 4052 3616 3170 2762 2374 1993 1705 1501 1379 1367 1483 1607 1732 1790 1841 1862 1869 1919 2079 2316 2566 2844 3154 3390 3606 3815 4129 4540 5024 5537 6001 6407 6795 7114 7373 7580 7751 7890 7978 8016 8055 8077 8016 7939 7807 7637 7434 7249 7095 6997 7009 7076 7195 7361 7484 7572 7613 7680 7706 7740 7774 7789 7743
5859 5611 5341 5005 4627 4202 3752 3288 2862 2457 2079 1740 1498 1352 1330 1404 1564 1698 1782 1850 1883 1895 1943 2044 2267 2538 2857 3121 3432 3701 3954 4168 4530 4945 5445 5927 6314 6645 6937 7184 7382 7572 7698 7796 7907 7995 8088 8137 8115 8016 7873 7698 7495 7326 7252 7193 7225 7295 7390 7490 7585 7651 7684 7732 7751 7829 7910 7957 7911
5782 5487 5167 4776 4343 3868 3410 2958 2549 2154 1798 1480 1318 1279 1348 1480 1653 1767 1861 1906 1927 1960 2037 2180 2461 2801 3134 3416 3696 3963 4252 4555 4943 5365 5815 6232 6541 6787 6998 7182 7310 7455 7582 7676 7813 7956 8077 8159 8137 8055 7912 7720 7577 7484 7442 7415 7427 7456 7529 7596 7648 7691 7708 7745 7762 7836 7913 8012 7957
5587 5273 4912 4485 4002 3530 3087 2639 2240 1854 1519 1301 1248 1294 1423 1605 1741 1841 1909 1978 2030 2107 2214 2395 2718 3054 3401 3717 3980 4245 4562 4949 5385 5783 6128 6439 6671 6870 7004 7112 7209 7325 7463 7607 7774 7912 8016 8076 8060 7984 7868 7753 7676 7615 7560 7555 7568 7594 7648 7721 7756 7762 7770 7807 7835 7884 7952 7998 7926
5333 4989 4587 4160 3661 3199 2748 2329 1932 1600 1335 1198 1241 1387 1543 1704 1807 1875 1934 2065 2220 2356 2496 2660 2984 3329 3680 3993 4284 4587 4925 5335 5787 6127 6397 6569 6724 6862 6973 7044 7101 7211 7363 7537 7691 7820 7914 7950 7945 7909 7865 7799 7758 7703 7673 7689 7735 7767 7818 7873 7900 7889 7912 7970 7995 7999 7998 7955 7866
4990 4638 4242 3791 3312 2860 2427 2024 1656 1402 1256 1224 1353 1501 1656 1798 1844 1920 2007 2174 2402 2621 2827 3023 3317 3654 4005 4335 4610 4928 5286 5726 6113 6382 6532 6588 6693 6830 6939 7010 7055 7156 7269 7446 7592 7694 7782 7818 7851 7853 7839 7810 7749 7727 7743 7831 7910 7943 7987 8009 8041 8063 8074 8118 8132 8084 7994 7871 7782
4645 4260 3868 3434 2996 2539 2126 1737 1484 1304 1278 1326 1495 1620 1763 1840 1883 1952 2102 2295 2570 2837 3107 3366 3665 3991 4326 4645 4951 5281 5637 6041 6288 6437 6546 6590 6695 6807 6937 7009 7043 7122 7232 7356 7474 7579 7645 7667 7700 7696 7674 7661 7623 7655 7760 7952 8053 8113 8146 8157 8166 8188 8196 8190 8148 8084 7971 7876 7762
4273 3908 3502 3098 2667 2260 1875 1552 1366 1320 1348 1467 1611 1738 1798 1868 1904 2033 2218 2452 2741 3045 3360 3654 3988 4350 4679 4982 5257 5598 5913 6198 6332 6414 6501 6600 6720 6835 6937 6987 7013 7074 7167 7271 7398 7470 7524 7546 7529 7521 7504 7499 7521 7655 7837 8073 8166 8210 8215 8226 8215 8204 8185 8162 8092 8036 7951 7849 7776